Regional Weather Roundup
Issued by NWS

Home | Current Version | Previous Version | Graphics & Text | Print | Product List | Glossary On
Versions: 1 2 3 4 5 6 7 8 9 10 11 12 13 14 15 16 17 18 19 20 21 22 23 24 25 26 27 28 29 30 31 32 33 34 35 36 37 38 39 40 41 42 43 44 45 46 47 48 49 50
342
ASUS43 KIND 271209
RWRIN

WEATHER ROUNDUP FOR INDIANA
NATIONAL WEATHER SERVICE INDIANAPOLIS IN
800 AM EDT WED JUL 27 2016

NOTE: "FAIR" INDICATES FEW OR NO CLOUDS BELOW 12,000 FEET WITH NO
SIGNIFICANT WEATHER AND/OR OBSTRUCTIONS TO VISIBILITY.

* - STATION DOES NOT REPORT WEATHER SUCH AS PRECIPITATION OR FOG.

+ - STATION NOT QUALITY CONTROLLED BY THE NATIONAL WEATHER SERVICE.
    USE DATA WITH CAUTION...ESPECIALLY DEWPOINT AND RELATIVE
    HUMIDITY OBSERVATIONS.

INZ001>003-010>013-019-020-271300-
NORTHWEST INDIANA

CITY           SKY/WX    TMP DP  RH WIND       PRES   REMARKS
GARY /AIRPORT/ MOSUNNY   72  70  94 SW7       30.03F
KNOX *+        MOSUNNY   64  63  94 CALM      30.04S
LA PORTE +     SUNNY     71  71 100 CALM      30.04F
MICHIGAN CITY+ SUNNY     64  64 100 CALM      30.03F
MONTICELLO +   MOSUNNY   66  63  88 CALM      30.04R FOG
6HR MIN TEMP:  63; 6HR MAX TEMP:  67;

RENSSELAER +   SUNNY     64  64 100 CALM      30.05S FOG
VALPARAISO     SUNNY     70  64  81 CALM      30.04F
6HR MIN TEMP:  63; 6HR MAX TEMP:  70;


$$

LMZ046-743>745-271300-
SOUTHERN LAKE MICHIGAN

STATION/POSITION TIME  TEMP    WIND        PRES    WAVE
                       AIR SEA DIR/SP/G            HT
                 (UTC) (F)     (DEG/KT/KT) (MB)    (FT)
BURNS HARBOR     1103   70     180/  5/  7 1017.3R
MICHIGAN CITY    1100   70     180/  6/  7   N/A
5NW MICH CITY    1200   74 75  230/  6/  8   N/A     1

$$

INZ004-005-014>016-021>024-271300-
NORTH CENTRAL INDIANA

CITY           SKY/WX    TMP DP  RH WIND       PRES   REMARKS
GOSHEN         SUNNY     66  62  87 CALM      30.05R
6HR MIN TEMP:  61; 6HR MAX TEMP:  67;

LOGANSPORT +   MOSUNNY   64  64 100 CALM      30.06S FOG
PERU/GRISSOM   SUNNY     68  66  93 CALM      30.04R
6HR MIN TEMP:  62; 6HR MAX TEMP:  69;

ROCHESTER +    SUNNY     72  72 100 CALM      30.05S
SOUTH BEND     SUNNY     68  65  90 CALM      30.04S
6HR MIN TEMP:  61; 6HR MAX TEMP:  68;

WARSAW +       SUNNY     64  64 100 CALM      30.05S FOG

$$

INZ006>009-017-018-025>027-271300-
NORTHEAST INDIANA

CITY           SKY/WX    TMP DP  RH WIND       PRES   REMARKS
ANGOLA *+        N/A     64  55  72 CALM      30.04S
AUBURN +       SUNNY     68  63  83 CALM      30.05S
FORT WAYNE     MOSUNNY   66  63  90 CALM      30.04S
6HR MIN TEMP:  62; 6HR MAX TEMP:  68;

HUNTINGTON +   SUNNY     67  65  96 CALM      30.04S
6HR MIN TEMP:  62; 6HR MAX TEMP:  67;


$$

INZ028-029-035-036-043>045-051>053-271300-
WEST CENTRAL INDIANA

CITY           SKY/WX    TMP DP  RH WIND       PRES   REMARKS
CRAWFORDSVL +  SUNNY     65  65 100 CALM      30.06R FOG
6HR MIN TEMP:  60; 6HR MAX TEMP:  65;

GREENCASTLE +  MOSUNNY   68  68 100 CALM      30.06R
LAFAYETTE      MOSUNNY   66  66 100 CALM      30.04S FOG
6HR MIN TEMP:  62; 6HR MAX TEMP:  67;

TERRE HAUTE    CLOUDY    71  68  90 CALM      30.04R
6HR MIN TEMP:  67; 6HR MAX TEMP:  71;


$$

INZ030>032-037>040-046>048-054>057-064-065-271300-
CENTRAL INDIANA

CITY           SKY/WX    TMP DP  RH WIND       PRES   REMARKS
COLUMBUS       PTSUNNY   70  70 100 N3        30.03R
INDIANAPOLIS   MOSUNNY   73  67  81 CALM      30.05R
6HR MIN TEMP:  70; 6HR MAX TEMP:  73;

-EAGLE CREEK   MOSUNNY   73  65  75 CALM      30.04R
6HR MIN TEMP:  69; 6HR MAX TEMP:  74;

KOKOMO *+      MOSUNNY   68  61  77 CALM      30.05S
6HR MIN TEMP:  61; 6HR MAX TEMP:  68;

MARION +       SUNNY     63  63 100 CALM      30.05S FOG
MT COMFORT *+  MOSUNNY   68  66  94 CALM      30.05S
SHELBYVILLE    CLOUDY    71  67  87 CALM      30.03S FOG
6HR MIN TEMP:  67; 6HR MAX TEMP:  71;

ZIONSVILLE +   SUNNY     66  65  97 CALM      30.06S
6HR MIN TEMP:  61; 6HR MAX TEMP:  66;


$$

INZ033-034-041-042-049-050-058-059-271300-
EAST CENTRAL INDIANA

CITY           SKY/WX    TMP DP  RH WIND       PRES   REMARKS
MUNCIE         PTSUNNY   70  67  90 CALM      30.05R
6HR MIN TEMP:  64; 6HR MAX TEMP:  70;


$$

INZ060-061-067>069-081>083-085>088-271300-
SOUTHWEST INDIANA

CITY           SKY/WX    TMP DP  RH WIND       PRES   REMARKS
EVANSVILLE     CLOUDY    76  74  93 CALM      30.02R
6HR MIN TEMP:  74; 6HR MAX TEMP:  78;

HUNTINGBURG *+ CLOUDY    73  70  88 CALM      30.02R
6HR MIN TEMP:  72; 6HR MAX TEMP:  75;

WASHINGTON +   CLOUDY    74  74 100 MISG      30.02R
6HR MIN TEMP:  72; 6HR MAX TEMP:  74;


$$

INZ062-063-066-070>080-084-089>092-271300-
SOUTH CENTRAL AND SOUTHEAST INDIANA

CITY           SKY/WX    TMP DP  RH WIND       PRES   REMARKS
BLOOMINGTON    CLOUDY    73  69  87 N5        30.04R
6HR MIN TEMP:  68; 6HR MAX TEMP:  73;

MADISON *+     CLOUDY    73  72  94 CALM      30.05R

$$





USA.gov is the U.S. government's official web portal to all federal, state and local government web resources and services.